Regional Weather Roundup
Issued by NWS

Home | Current Version | Previous Version | Graphics & Text | Print | Product List | Glossary On
Versions: 1 2 3 4 5 6 7 8 9 10 11 12 13 14 15 16 17 18 19 20 21 22 23 24 25 26 27 28 29 30 31 32 33 34 35 36 37 38 39 40 41 42 43 44 45 46 47 48 49 50
000
ASUS43 KDMX 260803
RWRIA

WEATHER ROUNDUP FOR IOWA
NATIONAL WEATHER SERVICE DES MOINES IA
300 AM CDT TUE JUL 26 2016

NOTE: "FAIR" INDICATES FEW OR NO CLOUDS BELOW 12,000 FEET WITH NO
SIGNIFICANT WEATHER AND/OR OBSTRUCTIONS TO VISIBILITY.

* - THESE STATIONS ARE NOT NWS STATIONS...THUS NOT UNDER NWS
QUALITY CONTROL.  THEY ALSO DO NOT REPORT WEATHER SUCH
AS PRECIPITATION OR FOG.

IAZ001>003-012>014-020>022-031>034-043>046-260900-
   NORTHWEST IOWA

CITY           SKY/WX    TMP DP  RH WIND       PRES   REMARKS
CARROLL *      CLEAR     64  63  94 CALM      30.10S
CHEROKEE *     CLEAR     64  64 100 CALM      30.10S
DENISON *      CLEAR     63  61  94 CALM      30.08F
LE MARS *      CLEAR     66  63  88 CALM      30.10S
SHELDON *      CLEAR     64  63  94 CALM      30.09S
SIOUX CITY     CLEAR     68  63  84 E5        30.08F
SPENCER        CLEAR     63  61  93 SW5       30.10S
STORM LAKE *   CLEAR     66  63  88 SW6       30.11F
$$

IAZ055>058-069>071-079>083-090>094-260900-
   SOUTHWEST IOWA

CITY           SKY/WX    TMP DP  RH WIND       PRES   REMARKS
ATLANTIC *     PTCLDY    61  61 100 N5        30.09F
CLARINDA *       N/A     64  64 100 MISG      30.10S
COUNCIL BLFS *   N/A     66  66 100 N3        30.09F
CRESTON *      CLEAR     68  63  83 N3        30.10F
HARLAN  *      CLEAR     61  61 100 N5        30.13S
LAMONI         CLEAR     66  64  93 N5        30.07F
RED OAK *      PTCLDY    64  64 100 CALM      30.08F
SHENANDOAH *   PTCLDY    64  64 100 NE3       30.08F FOG
$$

IAZ047>049-059>061-072>074-084-260900-
   CENTRAL IOWA

CITY           SKY/WX    TMP DP  RH WIND       PRES   REMARKS
AMES           CLEAR     63  63 100 CALM      30.08S
ANKENY *         N/A    N/A N/A N/A MISG        N/A
BOONE *        CLEAR     68  63  83 CALM      30.09R
CHARITON *       N/A    N/A N/A N/A MISG        N/A
DES MOINES     CLEAR     72  66  81 CALM      30.07S
GRINNELL*      CLEAR     64  62  93 CALM      30.09S
KNOXVILLE *    CLEAR     64  63  94 NW5       30.06S
MARSHALLTOWN   CLEAR     65  65 100 CALM      30.08S
NEWTON *       CLEAR     68  66  94 CALM      30.08R
PELLA *        CLEAR     65  63  93 CALM      30.08S
PERRY *          N/A     64  64  99 NW3       30.09S
$$

IAZ004>006-015-016-023>025-035-036-260900-
   NORTH CENTRAL IOWA

CITY           SKY/WX    TMP DP  RH WIND       PRES   REMARKS
ALGONA *       CLEAR     68  66  94 SW5       30.10S
ESTHERVILLE    CLEAR     65  63  93 SW5       30.09S
FORT DODGE *   CLEAR     66  64  94 CALM      30.10S
MASON CITY     CLEAR     65  64  97 CALM      30.10S
FOREST CITY *    N/A     63  63 100 CALM      30.10S FOG
IOWA FALLS *     N/A     64  61  91 CALM      30.09F
$$

IAZ007>011-017>019-026>030-037>042-050>054-066-260900-
   NORTHEAST IOWA

CITY           SKY/WX    TMP DP  RH WIND       PRES   REMARKS
CEDAR RAPIDS   PTCLDY    66  66 100 N6        30.06S
CHARLES CITY * CLEAR     63  63 100 CALM      30.09S
CLINTON *      PTCLDY    67  65  93 N6        30.06R
DECORAH *      CLEAR     64  64 100 CALM      30.07F
DUBUQUE        CLEAR     67  62  84 CALM      30.08R
MONTICELLO *   FOG       63  63 100 CALM      30.07R VSB 1
OELWEIN *      PTCLDY    66  63  88 NW5       30.09S
WATERLOO       CLEAR     65  63  93 CALM      30.07S
$$

IAZ064-065-067-068-078-260900-
   EAST CENTRAL IOWA

CITY           SKY/WX    TMP DP  RH WIND       PRES   REMARKS
DAVENPORT      CLEAR     63  62  97 NW3       30.06R
IOWA CITY      PTCLDY    67  64  90 CALM      30.07S
MT. PLEASANT *   N/A     68  68 100 CALM      30.06S
MUSCATINE *    CLEAR     66  64  94 CALM      30.05S
QUAD CITIES    CLEAR     67  64  90 CALM      30.04S
$$

IAZ062-063-075>077-085>089-095>099-260900-
   SOUTHEAST IOWA

CITY           SKY/WX    TMP DP  RH WIND       PRES   REMARKS
BURLINGTON     CLEAR     69  67  93 N5        30.05R
FAIRFIELD *    MOCLDY    66  63  88 NW6       30.06S
KEOKUK *       CLEAR     68  66  94 CALM      30.05R
OSKALOOSA *      N/A     63  61  94 N3        30.07S
CENTERVILLE *    N/A     64  63  94 CALM      30.08F
OTTUMWA        CLEAR     66  63  90 N3        30.06S
WASHINGTON *   CLEAR     66  64  94 NW5       30.07S
$$

ABBREVIATIONS USED IN REMARKS
   TC - TEMPERATURES IN CELSIUS
  WCI - WIND CHILL INDEX
   HX - HEAT INDEX
  VSB - VISIBILITY
$$





USA.gov is the U.S. government's official web portal to all federal, state and local government web resources and services.